Location: Brookview Estates
(36.0476°N, 86.6931°W)
Time: 23:47:47
(UTC+00:00)

Cosmos 1420 Rocket - Pass Details

Date: 30 March 2020
Orbit: 755 x 780 km, 74.0° (Epoch: 04 June)

Event Time Altitude Azimuth Distance (km) Brightness Sun altitude
Rises 00:21:52 0° 339° (NNW) 3,247 7.7 -3.9°
Reaches altitude 10° 00:24:15 10° 338° (NNW) 2,313 6.9 -4.4°
Maximum altitude 00:29:29 72° 255° (WSW) 805 4.4 -5.4°
Drops below altitude 10° 00:34:38 10° 172° (S) 2,282 6.3 -6.4°
Sets 00:36:59 0° 170° (S) 3,201 7.0 -6.9°
